EW6425 Weather Reports


time (UTC)temp
F
wind
direction
speed
knots
gust
knots
rain 1hr
in
rain 24hr
in
rain mn
in
humidity
%
barometer
mb
20260507220021 53 160 1.7 5.2 0.00 0.78 0.78 94 1001.6
20260507214519 53 160 0.0 0.0 0.00 0.78 0.78 94 1001.8
20260507213018 53 160 0.0 4.3 0.00 0.78 0.78 94 1001.9
20260507211523 53 160 2.6 6.1 0.00 0.78 0.78 94 1001.9
20260507210119 53 190 0.9 3.5 0.00 0.78 0.78 94 1001.9
20260507204516 53 190 2.6 6.1 0.00 0.78 0.78 94 1001.9
20260507203015 53 176 2.6 7.8 0.02 0.78 0.78 94 1001.4
20260507201515 53 130 1.7 9.6 0.07 0.78 0.78 94 1001.0
20260507200012 53 138 0.9 6.1 0.13 0.78 0.78 94 1001.2
20260507194509 53 203 0.9 3.5 0.19 0.78 0.78 94 1001.9
20260507193007 53 203 0.9 2.6 0.21 0.76 0.76 94 1002.3
20260507191505 53 204 0.9 3.5 0.21 0.70 0.70 93 1002.7
20260507190004 54 205 1.7 4.3 0.20 0.64 0.64 93 1003.7
20260507184502 53 205 0.0 2.6 0.23 0.59 0.59 93 1003.8
20260507183002 53 205 0.0 5.2 0.33 0.54 0.54 93 1004.0
20260507181605 53 205 2.6 5.2 0.44 0.50 0.50 93 1004.2
20260507180100 53 213 3.5 10.4 0.41 0.43 0.43 92 1004.2
20260507174559 53 184 4.3 9.6 0.35 0.36 0.36 92 1004.7
20260507173103 54 218 5.2 10.4 0.20 0.21 0.21 91 1004.7
20260507171600 55 167 4.3 11.3 0.04 0.04 0.04 91 1004.2
20260507164600 56 169 5.2 17.4 0.01 0.01 0.01 89 1004.3
20260507163052 56 170 7.0 16.5 0.00 0.00 0.00 88 1004.5
20260507161549 56 189 7.8 14.8 0.00 0.00 0.00 87 1005.1
20260507160148 57 188 6.1 14.8 0.00 0.00 0.00 87 1005.4
20260507154551 57 173 8.7 14.8 0.00 0.00 0.00 87 1006.0
20260507153044 58 145 7.0 17.4 0.00 0.00 0.00 85 1006.0
20260507151542 58 201 6.1 26.1 0.00 0.00 0.00 85 1006.5
20260507150040 59 169 9.6 18.2 0.00 0.00 0.00 85 1006.8
20260507144538 59 161 10.4 17.4 0.00 0.00 0.00 85 1006.9
20260507143038 58 142 7.0 20.0 0.00 0.00 0.00 85 1007.0
20260507141534 58 155 13.0 26.1 0.00 0.00 0.00 85 1007.4
20260507140033 58 191 10.4 20.0 0.00 0.00 0.00 87 1007.3
20260507134532 57 134 7.0 17.4 0.00 0.00 0.00 88 1007.9
20260507133030 57 163 7.0 20.0 0.00 0.00 0.00 88 1007.9
20260507131536 57 145 8.7 20.9 0.00 0.00 0.00 87 1007.9
20260507130026 57 169 8.7 17.4 0.00 0.00 0.00 87 1008.3
20260507124531 57 160 8.7 26.9 0.00 0.00 0.00 86 1008.5
20260507123028 58 161 8.7 16.5 0.00 0.00 0.00 88 1008.7
20260507121524 57 184 5.2 20.0 0.00 0.00 0.00 90 1008.8
20260507120027 57 174 11.3 23.5 0.00 0.00 0.00 92 1008.3
20260507114519 56 170 9.6 15.6 0.00 0.00 0.00 92 1008.9
20260507113017 55 138 7.8 18.2 0.00 0.00 0.00 92 1009.1
20260507111515 55 183 7.0 14.8 0.00 0.00 0.00 92 1009.8
20260507110016 55 165 7.8 17.4 0.00 0.00 0.00 92 1010.0
20260507104513 55 128 5.2 13.0 0.00 0.00 0.00 91 1010.1
20260507103013 55 167 7.8 20.9 0.00 0.00 0.00 92 1009.9
20260507101515 55 167 8.7 16.5 0.00 0.00 0.00 92 1010.0
20260507100008 55 171 7.0 14.8 0.00 0.00 0.00 93 1010.2
20260507094505 54 149 3.5 12.2 0.00 0.00 0.00 93 1010.7
20260507093004 53 156 5.2 9.6 0.00 0.00 0.00 93 1010.9
20260507091503 53 157 2.6 8.7 0.00 0.00 0.00 92 1010.6
20260507090004 54 175 1.7 13.9 0.00 0.00 0.00 93 1010.9
20260507084502 53 152 7.0 10.4 0.00 0.00 0.00 93 1011.2
20260507083059 53 175 3.5 8.7 0.00 0.00 0.00 92 1011.1
20260507081557 52 146 2.6 7.8 0.00 0.00 0.00 92 1011.1
20260507080118 51 177 0.9 3.5 0.00 0.00 0.00 92 1011.1
20260507074558 51 177 0.0 2.6 0.00 0.00 0.00 92 1011.1
20260507073104 51 177 2.6 5.2 0.00 0.00 0.00 91 1011.6
20260507071550 51 177 0.9 7.0 0.00 0.00 0.00 91 1012.2
20260507070048 51 177 2.6 5.2 0.00 0.00 0.00 91 1012.7
20260507064547 51 177 0.9 3.5 0.00 0.00 0.00 91 1012.8
20260507063055 51 178 1.7 3.5 0.00 0.00 0.00 91 1012.8
20260507061546 51 178 2.6 6.1 0.00 0.00 0.00 90 1013.1
20260507060050 51 101 0.9 3.5 0.00 0.00 0.00 90 1012.7
20260507054545 51 101 0.0 2.6 0.00 0.00 0.00 89 1013.0
20260507053040 51 101 3.5 6.1 0.00 0.00 0.00 89 1013.5
20260507051537 51 103 3.5 7.8 0.00 0.00 0.00 89 1014.2
20260507050034 51 199 2.6 5.2 0.00 0.00 0.00 89 1014.4
20260507044530 51 203 1.7 4.3 0.00 0.00 0.00 88 1014.8
20260507043027 51 203 0.0 1.7 0.00 0.00 0.00 87 1015.1
20260507041524 51 203 0.0 2.6 0.00 0.00 0.00 87 1015.5
20260507040022 51 203 0.0 0.0 0.00 0.00 0.00 86 1015.8
20260507034520 52 203 0.9 3.5 0.00 0.00 0.00 86 1016.2
20260507033017 52 203 0.9 3.5 0.00 0.00 0.00 85 1016.3
20260507031514 52 203 0.0 2.6 0.00 0.00 0.00 85 1016.5
20260507030013 53 203 0.0 0.9 0.00 0.00 0.00 84 1016.6
20260507024512 53 203 0.0 3.5 0.00 0.00 0.00 84 1016.8
20260507023010 53 203 1.7 4.3 0.00 0.00 0.00 84 1016.9
20260507021509 53 203 0.0 2.6 0.00 0.00 0.00 84 1017.1
20260507020008 54 203 0.0 4.3 0.00 0.00 0.00 83 1017.3
20260507014506 54 203 0.0 2.6 0.00 0.00 0.00 82 1017.3
20260507013012 54 203 0.0 2.6 0.00 0.00 0.00 82 1017.3
20260507011509 55 203 1.7 3.5 0.00 0.00 0.00 81 1017.5
20260507010003 55 203 0.9 5.2 0.00 0.00 0.00 80 1017.5
20260507004504 56 203 1.7 5.2 0.00 0.00 0.00 79 1017.6
20260507003001 56 203 1.7 7.0 0.00 0.00 0.00 79 1017.6
20260507001501 56 190 1.7 7.8 0.00 0.00 0.00 79 1017.5
20260507000002 57 180 2.6 9.6 0.00 0.00 0.00 79 1017.6
20260506234559 57 187 2.6 7.8 0.00 0.00 0.00 79 1017.6
20260506233110 58 194 1.7 9.6 0.00 0.00 0.00 79 1017.4
20260506231601 58 188 4.3 10.4 0.00 0.00 0.00 79 1017.3
20260506230055 59 163 3.5 13.0 0.00 0.00 0.00 79 1017.0
20260506224554 60 171 2.6 8.7 0.00 0.00 0.00 78 1016.7
20260506223053 61 210 5.2 12.2 0.00 0.00 0.00 76 1016.6
20260506221552 63 160 4.3 9.6 0.00 0.00 0.00 74 1016.5